Date String (YYYY-MM-DD hh:mm:ss) UTC,Instrument flags,Ambient pressure (hPa),Sample flow (lpm),Bypass flow (lpm),Sample temperature (°C),Ambient temperature (°C),ASC tube jacket temperature (°C),LED temperature (°C),Box temperature (°C),Sample RH (%),Span deviation,Mass concentration (μg/m³),Mass concentration (μg/m³),Mass concentration (μg/m³)
DateTimeUTC,F1_M11,P_M11,Q1_M11,Q2_M11,T1_M11,T2_M11,T3_M11,T4_M11,T5_M11,U1_M11,ZSPAN_M11,X0_M11,X2_M11,X1_M11
2022-11-07 15:00:00,,0826.5,5.00,0.00,22.8,21.5,00.0,31.5,24.7,13.0,0000.0,0014.15,0003.62,0001.66
2022-11-07 15:01:00,,0826.5,4.99,0.00,22.8,21.5,00.0,31.5,24.7,13.0,0000.0,0013.94,0003.61,0001.67
2022-11-07 15:02:00,,0826.4,5.00,0.00,22.8,21.5,00.0,31.5,24.7,13.0,0000.0,0014.94,0003.59,0001.68
2022-11-07 15:03:00,,0826.5,5.00,0.00,22.8,21.5,00.0,31.5,24.7,13.1,0000.0,0014.20,0003.54,0001.70
2022-11-07 15:04:00,,0826.5,5.01,0.00,22.8,21.5,00.0,31.5,24.7,12.9,0000.0,0013.45,0003.53,0001.71
2022-11-07 15:05:00,,0826.4,5.00,0.00,22.8,21.5,00.0,31.5,24.7,13.1,0000.0,0013.16,0003.61,0001.73
2022-11-07 15:06:00,,0826.4,5.00,0.00,22.8,21.5,00.0,31.5,24.7,13.1,0000.0,0012.82,0003.57,0001.71
2022-11-07 15:07:00,,0826.4,5.02,0.00,22.8,21.5,00.0,31.5,24.7,13.2,0000.0,0013.24,0003.56,0001.72
2022-11-07 15:08:00,,0826.5,4.99,0.00,22.8,21.5,00.0,31.5,24.8,13.1,0000.0,0013.08,0003.55,0001.74
2022-11-07 15:09:00,,0826.5,5.00,0.00,22.8,21.5,00.0,31.5,24.8,13.1,0000.0,0013.31,0003.59,0001.75
2022-11-07 15:10:00,,0826.4,5.00,0.00,22.8,21.6,00.0,31.5,24.8,13.3,0000.0,0014.23,0003.58,0001.75
2022-11-07 15:11:00,,0826.4,5.00,0.00,22.8,21.6,00.0,31.5,24.8,13.4,0000.0,0015.07,0003.58,0001.74
2022-11-07 15:12:00,,0826.2,4.98,0.00,22.8,21.6,00.0,31.5,24.8,13.6,0000.0,0015.71,0003.57,0001.74
2022-11-07 15:13:00,,0826.2,4.99,0.00,22.8,21.6,00.0,31.6,24.8,13.3,0000.0,0015.03,0003.59,0001.75
2022-11-07 15:14:00,,0826.3,5.02,0.00,22.8,21.6,00.0,31.6,24.7,13.3,0000.0,0015.40,0003.63,0001.74
2022-11-07 15:15:00,,0826.5,4.99,0.00,22.8,21.6,00.0,31.6,24.8,13.4,0000.0,0014.84,0003.61,0001.73
2022-11-07 15:16:00,,0826.5,4.99,0.00,22.9,21.6,00.0,31.6,24.8,13.8,0000.0,0014.57,0003.56,0001.73
2022-11-07 15:17:00,,0826.3,5.01,0.00,22.9,21.6,00.0,31.6,24.8,13.4,0000.0,0014.64,0003.54,0001.74
2022-11-07 15:18:00,,0826.2,5.00,0.00,22.9,21.6,00.0,31.6,24.8,13.4,0000.0,0014.13,0003.55,0001.74
2022-11-07 15:19:00,,0826.2,5.00,0.00,22.9,21.6,00.0,31.6,24.8,13.2,0000.0,0014.09,0003.61,0001.77
2022-11-07 15:20:00,,0826.4,4.99,0.00,22.9,21.6,00.0,31.6,24.8,13.4,0000.0,0013.53,0003.57,0001.77
2022-11-07 15:21:00,,0826.5,5.00,0.00,22.9,21.6,00.0,31.6,24.9,13.3,0000.0,0012.40,0003.56,0001.76
2022-11-07 15:22:00,,0826.4,5.01,0.00,22.9,21.7,00.0,31.6,24.8,13.4,0000.0,0011.44,0003.51,0001.75
2022-11-07 15:23:00,,0826.4,5.01,0.00,22.9,21.7,00.0,31.6,24.8,13.2,0000.0,0010.79,0003.51,0001.76
2022-11-07 15:24:00,,0826.5,5.00,0.00,22.9,21.7,00.0,31.6,24.9,13.3,0000.0,0010.70,0003.52,0001.75
2022-11-07 15:25:00,,0826.5,5.00,0.00,22.9,21.7,00.0,31.7,24.9,13.3,0000.0,0010.28,0003.53,0001.74
2022-11-07 15:26:00,,0826.5,4.98,0.00,22.9,21.7,00.0,31.7,24.8,13.2,0000.0,0011.22,0003.62,0001.75
2022-11-07 15:27:00,,0826.5,5.00,0.00,22.9,21.7,00.0,31.7,24.9,13.3,0000.0,0012.25,0003.66,0001.76
2022-11-07 15:28:00,,0826.5,5.02,0.00,22.9,21.7,00.0,31.7,24.9,13.2,0000.0,0012.88,0003.75,0001.77
2022-11-07 15:29:00,,0826.5,5.00,0.00,23.0,21.7,00.0,31.7,24.9,13.2,0000.0,0013.39,0003.84,0001.82
2022-11-07 15:30:00,,0826.5,4.98,0.00,23.0,21.7,00.0,31.7,24.9,13.4,0000.0,0013.10,0003.81,0001.81
2022-11-07 15:31:00,,0826.4,5.01,0.00,23.0,21.7,00.0,31.7,24.9,13.1,0000.0,0013.37,0003.86,0001.80
2022-11-07 15:32:00,,0826.4,5.01,0.00,23.0,21.8,00.0,31.7,24.9,13.2,0000.0,0013.19,0003.85,0001.83
2022-11-07 15:33:00,,0826.4,5.00,0.00,23.0,21.8,00.0,31.7,24.9,13.4,0000.0,0013.32,0003.96,0001.86
2022-11-07 15:34:00,,0826.4,5.00,0.00,23.0,21.8,00.0,31.7,24.9,13.2,0000.0,0013.93,0004.02,0001.88
2022-11-07 15:35:00,,0826.4,4.99,0.00,23.0,21.8,00.0,31.7,24.9,13.2,0000.0,0014.68,0004.09,0001.89
2022-11-07 15:36:00,,0826.4,5.01,0.00,23.0,21.8,00.0,31.7,24.9,13.4,0000.0,0016.07,0004.13,0001.92
2022-11-07 15:37:00,,0826.4,5.01,0.00,23.0,21.8,00.0,31.7,25.0,13.3,0000.0,0015.62,0004.09,0001.95
2022-11-07 15:38:00,,0826.3,4.99,0.00,23.0,21.9,00.0,31.7,25.0,13.4,0000.0,0015.68,0004.06,0001.95
2022-11-07 15:39:00,,0826.3,5.00,0.00,23.1,21.9,00.0,31.8,25.0,13.7,0000.0,0015.99,0004.09,0001.97
2022-11-07 15:40:00,,0826.4,5.00,0.00,23.1,21.9,00.0,31.8,25.0,13.5,0000.0,0016.15,0004.05,0001.96
2022-11-07 15:41:00,,0826.5,5.00,0.00,23.1,21.9,00.0,31.8,25.0,13.4,0000.0,0015.68,0004.01,0001.97
2022-11-07 15:42:00,,0826.4,5.02,0.00,23.1,21.9,00.0,31.8,25.0,13.7,0000.0,0015.67,0003.99,0001.98
2022-11-07 15:43:00,,0826.2,5.00,0.00,23.1,21.9,00.0,31.8,25.0,13.6,0000.0,0016.31,0004.04,0001.98
2022-11-07 15:44:00,,0826.2,4.99,0.00,23.1,22.0,00.0,31.8,25.0,13.4,0000.0,0017.26,0004.01,0001.97
2022-11-07 15:45:00,,0826.3,5.00,0.00,23.1,22.0,00.0,31.8,25.0,13.3,0000.0,0017.58,0004.01,0001.98
2022-11-07 15:46:00,,0826.3,5.01,0.00,23.1,22.0,00.0,31.8,25.1,13.4,0000.0,0017.36,0003.96,0001.99
2022-11-07 15:47:00,,0826.5,5.00,0.00,23.1,22.0,00.0,31.8,25.0,13.2,0000.0,0016.78,0003.88,0002.00
2022-11-07 15:48:00,,0826.4,4.99,0.00,23.2,22.0,00.0,31.8,25.1,13.5,0000.0,0016.57,0003.89,0001.99
2022-11-07 15:49:00,,0826.2,5.01,0.00,23.2,22.0,00.0,31.9,25.1,13.7,0000.0,0016.00,0003.97,0002.00
2022-11-07 15:50:00,,0826.2,5.00,0.00,23.2,22.0,00.0,31.9,25.1,13.4,0000.0,0015.87,0003.96,0002.00
2022-11-07 15:51:00,,0826.2,5.00,0.00,23.2,22.0,00.0,31.9,25.1,13.2,0000.0,0015.40,0003.96,0002.02
2022-11-07 15:52:00,,0826.2,5.00,0.00,23.2,22.1,00.0,31.9,25.1,13.2,0000.0,0015.68,0003.97,0002.02
2022-11-07 15:53:00,,0826.4,4.99,0.00,23.2,22.1,00.0,31.9,25.1,13.1,0000.0,0016.65,0004.01,0002.01
2022-11-07 15:54:00,,0826.4,4.99,0.00,23.2,22.1,00.0,31.9,25.1,13.3,0000.0,0016.70,0004.02,0002.03
2022-11-07 15:55:00,,0826.4,5.01,0.00,23.3,22.1,00.0,31.9,25.2,13.1,0000.0,0015.72,0003.99,0002.05
2022-11-07 15:56:00,,0826.3,5.01,0.00,23.3,22.1,00.0,31.9,25.2,13.2,0000.0,0014.70,0003.90,0002.05
2022-11-07 15:57:00,,0826.2,5.00,0.00,23.3,22.1,00.0,32.0,25.2,13.3,0000.0,0014.84,0003.89,0002.04
2022-11-07 15:58:00,,0826.2,5.00,0.00,23.3,22.1,00.0,32.0,25.2,13.3,0000.0,0014.93,0003.89,0002.06
2022-11-07 15:59:00,,0826.3,5.00,0.00,23.3,22.1,00.0,32.0,25.2,13.3,0000.0,0015.26,0003.85,0002.06
